Location: Bonaustraße
(48.4603°N, 11.9280°E)
Time: 03:53:18
(UTC+01:00)

Envisat - Pass Details

Date: 22 January 2021
Orbit: 764 x 766 km, 98.1° (Epoch: 05 March)

Event Time Altitude Azimuth Distance (km) Brightness Sun altitude
Rises 18:44:00 0° 223° (SW) 3,223 7.1 -17.7°
Reaches altitude 10° 18:48:07 10° 256° (WSW) 2,305 6.7 -18.4°
Maximum altitude 18:49:45 11° 275° (W) 2,206 6.5 -18.7°
Drops below altitude 10° 18:51:24 10° 294° (WNW) 2,311 6.3 -18.9°
Sets 18:55:34 0° 328° (NNW) 3,244 6.6 -19.6°
